Вернуться в каталог

BEIDOU IGSO-7

АктивенНавигацияMEO
NORAD 43539·PAYLOAD·🇨🇳 China

Запущен Jul 9, 2018 с Xichang Satellite Launch Center

Loading…

Ближайшие Пролёты (ближайшие 24 часа)

TLE

СвежийSource: Space-Track

Эпоха: Sep 14, 2026, 16:02 UTC

1 43539U 18057A   26257.66818142 -.00000157  00000-0  00000-0 0  9997
2 43539  55.2132 162.2967 0107995 236.7516 307.7012  1.00276806 30023

Отслеживайте BEIDOU IGSO-7 в реальном времени с AllMySat

Download on the App Store